Location: ?ejeti?ky
(50.4060°N, 14.9016°E)
Time: 13:55:23
(UTC+00:00)

ISS - Pass Details

Date: 03 December 2021
Orbit: 413 x 422 km, 51.6° (Epoch: 18 January)

Event Time Altitude Azimuth Distance (km) Brightness Sun altitude
Rises 16:00:47 0° 282° (WNW) 2,386 1.1 -9.5°
Reaches altitude 10° 16:02:54 10° 283° (WNW) 1,518 0.0 -9.8°
Maximum altitude 16:06:19 82° 10° (N) 433 -3.8 -10.3°
Enters shadow 16:09:21 13° 100° (E) 1,364 -1.7 -10.7°
